OPS 0856 DEB, 23841

Orbit data source: Space-Track

OPS 0856 DEB, 23841 is space debris in LEO originally from a launch on Fri, 19 Aug 1966 UTC launched from the Air Force Western Test Range (AFWTR). Debris objects in space refer to the collection of defunct objects orbiting the Earth. Examples of debris include non-operational satellites, rocket bodies, and fragments generated from explosions, collisions, or faulty payload assembly.

Loading next visibility...
Identifier
23841, 1966-077L
Orbit
LEO
Country
Flag of USUS
Related business
Manufacturer
Unknown
Mission
Spacecraft
Bus & Motor
Unknown
Mass
Unknown
Launch date (UTC)
1966-08-19 (60 years ago)
Launch vehicle
Unknown
Launch site
Air Force Western Test Range (AFWTR)
Object type
Payload
Rocket body
Debris
Shape & HBR
Unknown shape, 0.1 m
Radar Cross Section
Medium (>0.1 m² and <1 m²)

Expand to show TLE details & history
Last TLE update: 7 months ago

TLE from 7 months ago
0 OPS 0856 DEB
1 23841U 66077L   25352.43448157  .00000916  00000-0  65064-1 0  9995
2 23841  89.1224 156.0921 1764843 321.3076  27.3428  8.89084332175728
Epoch: 2025-12-18T10:25Z
TLE epoch observation values (Epoch: 2025-12-18T10:25:39.207Z)
Latitude
-0.00003°
Longitude
-87.6113°
Altitude
2,006.944 km
Speed
7.389 km/s
True Right ascension
10h 24m 22s
True Declination
0° 00' 00"
Sunlit
Object was in daylight at epoch
Visualization orbit readout
Latitude
Unknown
Longitude
Unknown
Altitude
Unknown
Speed
Unknown
Apparent Right ascension
Unknown
Apparent Declination
Unknown
Sunlit
N/A
Visualization observer readout
Local Sidereal Time
23:59:24
Azimuth
Unknown
Elevation
Unknown
Doppler factor
Unknown
Orbital elements
Apogee altitude
5,198.689 km
Perigee altitude
1,725.412 km
Semi-major axis
9,840.187 km
Eccentricity
0.17648
Inclination
89.1224°
RAAN
156.0921°
Arg. of periapsis
321.3076°
True anomaly
38.78944°
Mean anomaly
27.3428°
Eccentric anomaly
32.82401°
Mean motion
2.22351 °/min
Orbital period
161.91 mins
BSTAR
0.065064
Loading maneuver chart data...
Computing Atmospheric mass density...
Loading historical data...
Loading historical data...
Loading historical data...
Loading historical data...
Loading historical data...
Loading historical data...
Loading historical data...

Documentation

Showing up to 5 results
|